www.pogodaiklimat.ru

ПОГОДА в Чуджиаке, AK

  • Прогноз погоды в Чуджиаке
  • Монитор погоды в Чуджиаке
  • Климат в Чуджиаке

АРХИВ ПОГОДЫ в Чуджиаке

Время (UTC), дата Ветер
(напр.,м/с)
 
Видим.   Явления Облачность Т
(С)
Тd
(С)
f
(%)
Тe
(С)
Тes
(С)
Комфортность

P
(гПа)

Po
(гПа)
Тmin
(С)
Tmax
(С)
R
(мм)
SD
(см)
21:56 24.03 ЮЗ  16 км    2/0 2100 м
[средняя] 
+7.2  +0.6  63  +3  +4    1021.9  1017.4         
22:56 24.03 Ю  16 км    10/0 2250 м
[средняя] 
+7.2  +0.6  63  +3  +4    1022.5  1018.0  -1.7  +7.8     
23:56 24.03 Ю  16 км    10/0 2250 м
[средняя] 
+7.2  +0.6  63  +5  +6    1022.6  1018.0         
00:56 25.03 СВ  16 км    10/0 2250 м
[средняя] 
+6.1  +0.6  68  +2  +3    1022.4  1018.0         
01:56 25.03 СВ  16 км    10/0 2100 м
[средняя] 
+4.4  +0.6  76  +2  +3    1022.7  1018.0         
02:56 25.03   16 км    ясно  +5.0  +0.6  73  +4  +5    1022.8  1018.4         
03:56 25.03 ЮВ  16 км    ясно  +4.4  +0.6  76  +1  +1    1023.4  1019.1         
04:56 25.03   16 км    5/5 1800 м  +2.8  0.0  82  +2  +2    1023.7  1019.1  +2.2  +7.8     
05:56 25.03   16 км    5/0 2100 м
[средняя] 
+2.8  -0.6  78  +2  +2    1024.2  1019.7         
06:56 25.03   16 км    10/10 1950 м  +2.2  -1.1  79  +1  +1    1024.3  1019.7         
07:56 25.03 В  16 км    8/8 1800 м  +0.6  -1.7  85  -2  -2    1024.7  1020.4         
08:56 25.03   16 км    ясно  +0.6  -1.7  85  -1  -1    1025.1  1020.7         
09:56 25.03   16 км    ясно  +0.6  -2.2  81  -0  -0    1025.7  1021.1         
10:56 25.03 ЮВ  16 км    ясно  0.0  -2.2  85  -3  -3    1025.8  1021.4  -0.6  +3.3     
11:56 25.03 В  16 км    5/0 3600 м
[средняя] 
-0.6  -2.2  89  -4  -4    1025.7  1021.1         
12:56 25.03   16 км    5/0 3300 м
[средняя] 
-1.1  -2.8  88  -2  -2    1025.7  1021.1         
13:56 25.03 СВ  16 км    ясно  +1.7  -1.1  82  -1  -1    1025.5  1021.1         
14:56 25.03   16 км    ясно  +0.6  -1.7  85  -1  -1    1025.3  1020.7         
15:56 25.03   16 км    ясно  -0.6  -2.8  85  -2  -2    1025.2  1020.7         
16:56 25.03   16 км    ясно  0.0  -1.7  88  -1  -0    1025.6  1021.1  -1.1  +1.7     
17:56 25.03   16 км    ясно  +2.8  -0.6  78  +2  +4    1025.7  1021.1         
18:56 25.03 СВ  16 км    ясно  +5.0  -0.6  67  +3  +7    1025.8  1021.4         
19:56 25.03   16 км    ясно  +6.1  0.0  65  +6  +12    1025.4  1020.7         
20:56 25.03 З  16 км    ясно  +6.7  0.0  62  +5  +11    1025.0  1020.4         
21:56 25.03 З  16 км    ясно  +7.2  -0.6  58  +6  +12    1024.7  1020.1         
22:56 25.03 З  16 км    ясно  +6.7  0.0  62  +5  +11    1024.1  1019.7  0.0  +7.8     
23:56 25.03   16 км    ясно  +6.7  0.0  62  +6  +12    1023.7  1019.4         
00:56 26.03 З  16 км    2/0 2400 м
[средняя] 
+6.7  -0.6  60  +4  +6    1023.4  1019.1         
01:56 26.03   16 км    2/0 2250 м
[средняя] 
+7.2  -1.7  53  +7  +9    1022.9  1018.4         
02:56 26.03   16 км    8/0 2250 м
[средняя] 
+5.6  -1.7  59  +5  +5    1022.8  1018.4         
03:56 26.03 ЮВ  16 км    ясно  +2.8  -2.2  70  -1  -1    1022.8  1018.4         
04:56 26.03 ЮВ  16 км    ясно  +3.9  -2.2  64  0  0    1022.8  1018.4  +2.2  +7.8     
06:56 26.03   16 км    ясно  +1.7  -2.8  72  +1  +1    1022.3  1017.7         
07:56 26.03 ЮВ  16 км    ясно  -0.6  -2.8  85  -5  -5    1021.9  1017.4         
08:56 26.03   16 км    ясно  0.0  -2.8  81  -1  -1    1021.9  1017.4         
09:56 26.03   16 км    ясно  -1.7  -3.3  89  -3  -3    1021.7  1017.4         
10:56 26.03   16 км    ясно  -2.8  -4.4  89  -4  -4    1021.4  1017.0  -2.8  +4.4     
11:56 26.03   16 км    ясно  -3.3  -5.0  88  -4  -4    1021.0  1016.7         
12:56 26.03   16 км    ясно  -3.9  -5.0  92  -5  -5    1020.7  1016.4         
13:56 26.03   16 км    ясно  -3.9  -5.6  88  -5  -5    1020.7  1016.4         
14:56 26.03 Ю  16 км    ясно  -3.9  -5.0  92  -7  -7    1020.5  1016.0         
15:56 26.03   16 км    ясно  -3.9  -5.0  92  -5  -5    1020.4  1016.0         
16:56 26.03   16 км    ясно  +1.1  -2.8  75  0  +1    1020.3  1016.0  -4.4  +2.2     
17:56 26.03   16 км    ясно  0.0  -2.2  85  -1  +1    1020.1  1015.7         
18:56 26.03 З  16 км    ясно  +0.6  -2.2  81  -2  +1    1020.0  1015.3         
19:56 26.03   16 км    ясно  +1.1  -2.2  79  0  +6    1019.7  1015.3         
20:56 26.03 З  16 км    ясно  +2.8  -2.8  67  +1  +7    1019.4  1015.0         
21:56 26.03   16 км    ясно  +5.6  -3.3  53  +5  +13    1019.0  1014.7         

 

Местоположение метеостанции Birchwood Airport: широта 61.4167 долгота -149.5167 высота над уровнем моря 29 м.

В архиве по умолчанию представлена погода в Чуджиаке за последние 1-2 суток. Обновление информации о фактической погоде в базе происходит ежечасно! Архивные данные за месяц целиком и за предыдущие месяцы Вы можете получить, выбрав интересующий диапазон дат из раскрывающегося списка и нажав кнопку "Ввод!".

Внимание! Архив погоды МЕТАР в базе сайта хранится не более 60 дней. Нет смысла пытаться выбрать более раннюю дату.

Внимание! Время в таблицах - всемирное. Для получения местного времени необходимо прибавить поправку, которая в Чуджиаке равна -9 ч.

Ветер - указаны скорость ветра в м/с и направление, откуда дует ветер: С - северный, СВ - северо-восточный, В - восточный, ЮВ - юго-восточный, Ю - южный, ЮЗ - юго-западный, З - западный, СЗ - северо-западный.
Видимость - горизонтальная дальность видимости в метрах или километрах. При видимости от 1 до 10 км при отсутствии осадков обычно наблюдается дымка, при ухудшении видимости до 1 км и менее - туман. В сухую погоду видимость может ухудшаться дымом, пылью или мглою.
Атмосферные явления - указаны явления, наблюдавшиеся в указанный момент времени.
Облачность - указаны через наклонную черту верхняя и нижняя облачность в баллах и высота нижней границы облаков в метрах. Внимание: облачность, как и прочие метеорологические величины в США измеряются автоматическими метеостанциями. Указанные значения в баллах носят условный характер и показывают процент времени, в течение которого, в среднем, лазерный луч высотомера отражался от облаков обратно.
T - Температура воздуха - температура, измеренная на высоте 2 м над землей.
Td - Температура точки росы - температура, при понижении до которой содержащийся в воздухе водяной пар достигнет насыщения.
f - Относительная влажность воздуха - влажноcть воздуха, измеренная на высоте 2 м над землей.
Te - Эффективная температура - температура, которую ощущает одетый по сезону человек в тени. Характеристика душности погоды. При расчете учитывается влияние влажности воздуха и скорости ветра на теплоощущения человека.
Tes - Эффективная температура на солнце - температура, которую ощущает человек, с поправкой на солнечный нагрев. Характеристика знойности погоды. Зависит от высоты солнца над горизонтом, облачности и скорости ветра. Ночью, в пасмурную погоду, а также при ветре 12 м/с и более поправка равна нулю.
P - Атмосферное давление - приведенное к уровню моря атмосферное давление.
Po - Атмосферное давление - измеренное на уровне метеостанции атмосферное давление.
Tmin - Минимальная температура - минимум температуры воздуха на высоте 2 м над землей.
Tmax - Максимальная температура - максимум температуры воздуха на высоте 2 м над землей.
R - Количество осадков - Количество выпавших осадков за 3 или 6 часов, мм.
SD - Снежный покров - Высота снежного покрова, см.